{"data":{"norad_id":59305,"epoch":"2026-05-25T01:28:06.009024Z","epoch_age_seconds":72975,"freshness":"FRESH","line1":"1 59305U 24056K   26145.06118066  .00000175  00000+0  15886-4 0  9999","line2":"2 59305  43.0006 159.4632 0001206 275.1044  84.9670 15.27576041122837","mean_motion":15.27576041,"eccentricity":0.0001206,"inclination_deg":43.0006,"raan_deg":159.4632,"arg_perigee_deg":275.1044,"mean_anomaly_deg":84.967,"bstar":1.5886e-5,"rev_number":12283,"period_min":94.266993023623,"perigee_km":482.23349026264,"apogee_km":483.88841120836,"semimajor_km":6861.1979507355,"source":"CELESTRAK","updated_at":"2026-05-25T13:38:18.899558Z"}}